Time,TemperatureF,DewpointF,PressureIn,WindDirection,WindDirectionDegrees,WindSpeedMPH,WindSpeedGustMPH,Humidity,HourlyPrecipIn,Conditions,Clouds,dailyrainin,SoftwareType,DateUTC
2013-05-24 00:01:00,39.7,33.7,30.24,North,11,0.0,8.0,79,0.00,,---,0.05,VWS V14.00,2013-05-24 05:01:00,
2013-05-24 00:06:00,39.6,33.6,30.24,ENE,67,1.0,2.0,79,0.00,,---,0.00,VWS V14.00,2013-05-24 05:06:00,
2013-05-24 00:11:00,39.5,33.5,30.24,NE,45,2.0,6.0,79,0.00,,---,0.00,VWS V14.00,2013-05-24 05:11:00,
2013-05-24 00:16:00,39.5,33.8,30.24,ENE,70,2.0,6.0,80,0.00,,---,0.00,VWS V14.00,2013-05-24 05:16:00,
2013-05-24 00:21:00,39.6,33.6,30.24,NE,43,0.0,5.0,79,0.00,,---,0.00,VWS V14.00,2013-05-24 05:21:00,
2013-05-24 00:26:00,39.6,33.6,30.24,North,5,0.0,2.0,79,0.00,,---,0.00,VWS V14.00,2013-05-24 05:26:00,
2013-05-24 00:31:00,39.7,33.7,30.24,NE,34,0.0,1.0,79,0.00,,---,0.00,VWS V14.00,2013-05-24 05:31:00,
2013-05-24 00:36:00,39.6,33.6,30.24,NNE,24,0.0,2.0,79,0.00,,---,0.00,VWS V14.00,2013-05-24 05:36:00,
2013-05-24 00:41:00,39.6,33.6,30.24,North,9,0.0,1.0,79,0.00,,---,0.00,VWS V14.00,2013-05-24 05:41:00,
2013-05-24 00:46:00,39.5,33.5,30.24,North,10,0.0,1.0,79,0.00,,---,0.00,VWS V14.00,2013-05-24 05:46:00,
2013-05-24 00:51:00,39.4,33.8,30.24,North,9,0.0,2.0,80,0.00,,---,0.00,VWS V14.00,2013-05-24 05:51:00,
2013-05-24 00:56:00,39.3,33.7,30.24,North,360,1.0,4.0,80,0.00,,---,0.00,VWS V14.00,2013-05-24 05:56:00,
2013-05-24 01:01:00,39.3,33.7,30.24,NNW,347,0.0,2.0,80,0.00,,---,0.00,VWS V14.00,2013-05-24 06:01:00,
2013-05-24 01:06:00,39.3,33.7,30.25,North,360,0.0,1.0,80,0.00,,---,0.00,VWS V14.00,2013-05-24 06:06:00,
2013-05-24 01:11:00,39.2,33.9,30.25,North,5,0.0,0.0,81,0.00,,---,0.00,VWS V14.00,2013-05-24 06:11:00,
2013-05-24 01:16:00,39.1,33.8,30.25,NNE,13,0.0,2.0,81,0.00,,---,0.00,VWS V14.00,2013-05-24 06:16:00,
2013-05-24 01:21:00,39.0,33.7,30.25,NNW,346,0.0,1.0,81,0.00,,---,0.00,VWS V14.00,2013-05-24 06:21:00,
2013-05-24 01:26:00,39.1,33.8,30.25,NE,40,0.0,2.0,81,0.00,,---,0.00,VWS V14.00,2013-05-24 06:26:00,
2013-05-24 01:31:00,39.0,33.4,30.25,NNE,24,4.0,4.0,80,0.00,,---,0.00,VWS V14.00,2013-05-24 06:31:00,
2013-05-24 01:36:00,39.0,33.4,30.24,NNW,346,0.0,2.0,80,0.00,,---,0.00,VWS V14.00,2013-05-24 06:36:00,
2013-05-24 01:41:00,39.0,33.4,30.24,NNE,15,1.0,2.0,80,0.00,,---,0.00,VWS V14.00,2013-05-24 06:41:00,
2013-05-24 01:46:00,39.0,33.0,30.24,NNE,13,1.0,2.0,79,0.00,,---,0.00,VWS V14.00,2013-05-24 06:46:00,
2013-05-24 01:51:00,39.1,33.2,30.24,NE,40,0.0,2.0,79,0.00,,---,0.00,VWS V14.00,2013-05-24 06:51:00,
2013-05-24 01:56:00,39.1,33.2,30.24,North,351,0.0,3.0,79,0.00,,---,0.00,VWS V14.00,2013-05-24 06:56:00,
2013-05-24 02:01:00,39.2,32.9,30.24,NE,44,0.0,2.0,78,0.00,,---,0.00,VWS V14.00,2013-05-24 07:01:00,
2013-05-24 02:06:00,39.2,32.9,30.24,NNW,347,0.0,4.0,78,0.00,,---,0.00,VWS V14.00,2013-05-24 07:06:00,
2013-05-24 02:11:00,39.3,33.0,30.24,North,355,1.0,2.0,78,0.00,,---,0.00,VWS V14.00,2013-05-24 07:11:00,
2013-05-24 02:16:00,39.2,33.2,30.24,North,11,0.0,1.0,79,0.00,,---,0.00,VWS V14.00,2013-05-24 07:16:00,
2013-05-24 02:21:00,39.0,33.4,30.25,North,11,0.0,1.0,80,0.00,,---,0.00,VWS V14.00,2013-05-24 07:21:00,
2013-05-24 02:26:00,38.8,33.2,30.25,North,355,0.0,1.0,80,0.00,,---,0.00,VWS V14.00,2013-05-24 07:26:00,
2013-05-24 02:31:00,38.5,33.2,30.25,North,5,0.0,0.0,81,0.00,,---,0.00,VWS V14.00,2013-05-24 07:31:00,
2013-05-24 02:36:00,38.3,33.3,30.25,North,360,1.0,1.0,82,0.00,,---,0.00,VWS V14.00,2013-05-24 07:36:00,
2013-05-24 02:41:00,37.9,33.2,30.25,NNW,328,1.0,2.0,83,0.00,,---,0.00,VWS V14.00,2013-05-24 07:41:00,
2013-05-24 02:46:00,37.7,33.3,30.25,North,350,1.0,2.0,84,0.00,,---,0.00,VWS V14.00,2013-05-24 07:46:00,
2013-05-24 02:51:00,37.4,33.3,30.25,NNW,339,0.0,2.0,85,0.00,,---,0.00,VWS V14.00,2013-05-24 07:51:00,
2013-05-24 02:56:00,37.1,33.3,30.25,North,355,2.0,2.0,86,0.00,,---,0.00,VWS V14.00,2013-05-24 07:56:00,
2013-05-24 03:01:00,37.0,33.2,30.25,North,355,0.0,0.0,86,0.00,,---,0.00,VWS V14.00,2013-05-24 08:01:00,
2013-05-24 03:06:00,36.7,33.2,30.25,North,355,0.0,1.0,87,0.00,,---,0.00,VWS V14.00,2013-05-24 08:06:00,
2013-05-24 03:11:00,36.4,32.9,30.25,North,355,0.0,1.0,87,0.00,,---,0.00,VWS V14.00,2013-05-24 08:11:00,
2013-05-24 03:15:00,36.2,33.0,30.25,North,350,0.0,0.0,88,0.00,,---,0.00,VWS V14.00,2013-05-24 08:15:00,
2013-05-24 03:20:00,36.1,33.2,30.26,North,350,0.0,1.0,89,0.00,,---,0.00,VWS V14.00,2013-05-24 08:20:00,
2013-05-24 03:25:00,36.1,33.2,30.26,NNE,22,1.0,3.0,89,0.00,,---,0.00,VWS V14.00,2013-05-24 08:25:00,
2013-05-24 03:30:00,36.1,33.2,30.26,North,11,0.0,1.0,89,0.00,,---,0.00,VWS V14.00,2013-05-24 08:30:00,
2013-05-24 03:35:00,36.0,33.1,30.26,North,11,0.0,1.0,89,0.00,,---,0.00,VWS V14.00,2013-05-24 08:35:00,
2013-05-24 03:40:00,35.9,33.0,30.26,North,350,0.0,2.0,89,0.00,,---,0.00,VWS V14.00,2013-05-24 08:40:00,
2013-05-24 03:45:00,35.9,33.3,30.26,North,355,1.0,3.0,90,0.00,,---,0.00,VWS V14.00,2013-05-24 08:45:00,
2013-05-24 03:50:00,35.9,33.3,30.26,NNW,347,0.0,3.0,90,0.00,,---,0.00,VWS V14.00,2013-05-24 08:50:00,
2013-05-24 03:55:00,36.0,33.1,30.26,NNE,29,0.0,3.0,89,0.00,,---,0.00,VWS V14.00,2013-05-24 08:55:00,
2013-05-24 04:00:00,36.0,33.1,30.26,North,350,4.0,4.0,89,0.00,,---,0.00,VWS V14.00,2013-05-24 09:00:00,
2013-05-24 04:05:00,36.1,32.9,30.27,North,5,2.0,2.0,88,0.00,,---,0.00,VWS V14.00,2013-05-24 09:05:00,
2013-05-24 04:10:00,36.2,33.0,30.27,North,355,2.0,3.0,88,0.00,,---,0.00,VWS V14.00,2013-05-24 09:10:00,
2013-05-24 04:15:00,36.1,32.6,30.27,North,360,0.0,1.0,87,0.00,,---,0.00,VWS V14.00,2013-05-24 09:15:00,
2013-05-24 04:20:00,36.2,32.7,30.26,North,360,4.0,4.0,87,0.00,,---,0.00,VWS V14.00,2013-05-24 09:20:00,
2013-05-24 04:25:00,36.2,32.4,30.26,NNW,337,0.0,2.0,86,0.00,,---,0.00,VWS V14.00,2013-05-24 09:25:00,
2013-05-24 04:30:00,36.2,32.4,30.26,North,355,0.0,1.0,86,0.00,,---,0.00,VWS V14.00,2013-05-24 09:30:00,
2013-05-24 04:35:00,36.2,32.4,30.28,WNW,300,0.0,3.0,86,0.00,,---,0.00,VWS V14.00,2013-05-24 09:35:00,
2013-05-24 04:40:00,36.3,32.2,30.28,WNW,301,0.0,1.0,85,0.00,,---,0.00,VWS V14.00,2013-05-24 09:40:00,
2013-05-24 04:45:00,36.1,32.0,30.28,NNW,337,0.0,1.0,85,0.00,,---,0.00,VWS V14.00,2013-05-24 09:45:00,
2013-05-24 04:50:00,36.0,32.2,30.28,NNW,334,0.0,1.0,86,0.00,,---,0.00,VWS V14.00,2013-05-24 09:50:00,
2013-05-24 04:55:00,35.7,31.9,30.28,NNW,336,0.0,1.0,86,0.00,,---,0.00,VWS V14.00,2013-05-24 09:55:00,
2013-05-24 05:00:00,35.6,32.1,30.28,NW,321,0.0,2.0,87,0.00,,---,0.00,VWS V14.00,2013-05-24 10:00:00,
2013-05-24 05:05:00,35.5,32.0,30.29,NNW,348,1.0,1.0,87,0.00,,---,0.00,VWS V14.00,2013-05-24 10:05:00,
2013-05-24 05:10:00,35.5,32.0,30.29,ESE,111,0.0,1.0,87,0.00,,---,0.00,VWS V14.00,2013-05-24 10:10:00,
2013-05-24 05:15:00,35.3,31.8,30.29,NE,34,0.0,1.0,87,0.00,,---,0.00,VWS V14.00,2013-05-24 10:15:00,
2013-05-24 05:20:00,35.3,31.8,30.29,NNW,329,0.0,2.0,87,0.00,,---,0.00,VWS V14.00,2013-05-24 10:20:00,
2013-05-24 05:25:00,35.3,31.8,30.29,North,360,1.0,2.0,87,0.00,,---,0.00,VWS V14.00,2013-05-24 10:25:00,
2013-05-24 05:30:00,35.3,31.8,30.29,North,11,0.0,2.0,87,0.00,,---,0.00,VWS V14.00,2013-05-24 10:30:00,
2013-05-24 05:35:00,35.3,31.8,30.30,NNW,345,0.0,3.0,87,0.00,,---,0.00,VWS V14.00,2013-05-24 10:35:00,
2013-05-24 05:40:00,35.4,31.9,30.30,North,360,0.0,3.0,87,0.00,,---,0.00,VWS V14.00,2013-05-24 10:40:00,
2013-05-24 05:45:00,35.5,32.0,30.30,North,360,0.0,1.0,87,0.00,,---,0.00,VWS V14.00,2013-05-24 10:45:00,
2013-05-24 05:50:00,35.7,31.9,30.30,West,281,1.0,2.0,86,0.00,,---,0.00,VWS V14.00,2013-05-24 10:50:00,
2013-05-24 05:55:00,36.1,32.3,30.30,NNW,345,0.0,2.0,86,0.00,,---,0.00,VWS V14.00,2013-05-24 10:55:00,
2013-05-24 06:00:00,36.5,32.4,30.30,NNW,345,0.0,2.0,85,0.00,,---,0.00,VWS V14.00,2013-05-24 11:00:00,
2013-05-24 06:05:00,36.8,32.4,30.30,North,5,1.0,4.0,84,0.00,,---,0.00,VWS V14.00,2013-05-24 11:05:00,
2013-05-24 06:10:00,37.2,32.5,30.30,North,355,1.0,2.0,83,0.00,,---,0.00,VWS V14.00,2013-05-24 11:10:00,
2013-05-24 06:15:00,37.7,32.7,30.30,NNW,331,1.0,3.0,82,0.00,,---,0.00,VWS V14.00,2013-05-24 11:15:00,
2013-05-24 06:20:00,38.0,32.7,30.31,NNW,347,1.0,5.0,81,0.00,,---,0.00,VWS V14.00,2013-05-24 11:20:00,
2013-05-24 06:25:00,38.3,32.7,30.31,NNE,22,1.0,3.0,80,0.00,,---,0.00,VWS V14.00,2013-05-24 11:25:00,
2013-05-24 06:30:00,38.7,33.1,30.31,North,5,1.0,7.0,80,0.00,,---,0.00,VWS V14.00,2013-05-24 11:30:00,
2013-05-24 06:35:00,38.9,33.0,30.31,North,360,2.0,4.0,79,0.00,,---,0.00,VWS V14.00,2013-05-24 11:35:00,
2013-05-24 06:40:00,39.3,33.0,30.31,NNE,27,0.0,2.0,78,0.00,,---,0.00,VWS V14.00,2013-05-24 11:40:00,
2013-05-24 06:45:00,39.9,33.6,30.31,North,355,2.0,7.0,78,0.00,,---,0.00,VWS V14.00,2013-05-24 11:45:00,
2013-05-24 06:50:00,40.5,33.5,30.31,NE,35,4.0,7.0,76,0.00,,---,0.00,VWS V14.00,2013-05-24 11:50:00,
2013-05-24 06:55:00,41.2,33.9,30.31,NNE,22,1.0,1.0,75,0.00,,---,0.00,VWS V14.00,2013-05-24 11:55:00,
2013-05-24 07:00:00,41.8,33.8,30.31,North,360,3.0,4.0,73,0.00,,---,0.00,VWS V14.00,2013-05-24 12:00:00,
2013-05-24 07:05:00,42.2,33.8,30.31,NNW,342,2.0,6.0,72,0.00,,---,0.00,VWS V14.00,2013-05-24 12:05:00,
2013-05-24 07:10:00,42.5,33.4,30.31,NE,48,1.0,8.0,70,0.00,,---,0.00,VWS V14.00,2013-05-24 12:10:00,
2013-05-24 07:15:00,42.8,33.7,30.31,East,81,5.0,5.0,70,0.00,,---,0.00,VWS V14.00,2013-05-24 12:15:00,
2013-05-24 07:20:00,43.1,34.0,30.32,ENE,67,1.0,4.0,70,0.00,,---,0.00,VWS V14.00,2013-05-24 12:20:00,
2013-05-24 07:25:00,43.3,34.2,30.32,NNE,16,0.0,6.0,70,0.00,,---,0.00,VWS V14.00,2013-05-24 12:25:00,
2013-05-24 07:30:00,43.5,34.0,30.32,NNE,15,2.0,4.0,69,0.00,,---,0.00,VWS V14.00,2013-05-24 12:30:00,
2013-05-24 07:35:00,43.8,34.3,30.33,North,5,7.0,7.0,69,0.00,,---,0.00,VWS V14.00,2013-05-24 12:35:00,
2013-05-24 07:40:00,44.1,34.2,30.33,North,360,3.0,7.0,68,0.00,,---,0.00,VWS V14.00,2013-05-24 12:40:00,
2013-05-24 07:45:00,44.4,34.1,30.33,NE,38,0.0,5.0,67,0.00,,---,0.00,VWS V14.00,2013-05-24 12:45:00,
2013-05-24 07:50:00,44.9,34.2,30.34,North,350,2.0,5.0,66,0.00,,---,0.00,VWS V14.00,2013-05-24 12:50:00,
2013-05-24 07:55:00,45.2,34.5,30.34,NE,40,0.0,2.0,66,0.00,,---,0.00,VWS V14.00,2013-05-24 12:55:00,
2013-05-24 08:00:00,45.8,34.3,30.34,NNW,346,0.0,2.0,64,0.00,,---,0.00,VWS V14.00,2013-05-24 13:00:00,
2013-05-24 08:05:00,46.3,34.0,30.34,NNW,348,0.0,1.0,62,0.00,,---,0.00,VWS V14.00,2013-05-24 13:05:00,
2013-05-24 08:10:00,46.8,34.5,30.34,North,360,0.0,3.0,62,0.00,,---,0.00,VWS V14.00,2013-05-24 13:10:00,
2013-05-24 08:15:00,47.1,33.9,30.34,NE,48,5.0,7.0,60,0.00,,---,0.00,VWS V14.00,2013-05-24 13:15:00,
2013-05-24 08:20:00,47.1,33.5,30.35,North,350,1.0,9.0,59,0.00,,---,0.00,VWS V14.00,2013-05-24 13:20:00,
2013-05-24 08:25:00,47.3,34.1,30.35,NE,35,0.0,3.0,60,0.00,,---,0.00,VWS V14.00,2013-05-24 13:25:00,
2013-05-24 08:30:00,47.7,34.1,30.35,ENE,75,0.0,2.0,59,0.00,,---,0.00,VWS V14.00,2013-05-24 13:30:00,
2013-05-24 08:35:00,48.2,34.6,30.36,NNE,17,0.0,1.0,59,0.00,,---,0.00,VWS V14.00,2013-05-24 13:35:00,
2013-05-24 08:40:00,48.6,34.9,30.36,WNW,282,0.0,3.0,59,0.00,,---,0.00,VWS V14.00,2013-05-24 13:40:00,
2013-05-24 08:45:00,48.6,34.9,30.36,West,281,2.0,5.0,59,0.00,,---,0.00,VWS V14.00,2013-05-24 13:45:00,
2013-05-24 08:50:00,48.9,35.2,30.37,North,10,4.0,4.0,59,0.00,,---,0.00,VWS V14.00,2013-05-24 13:50:00,
2013-05-24 08:55:00,49.0,34.5,30.37,SSE,150,1.0,3.0,57,0.00,,---,0.00,VWS V14.00,2013-05-24 13:55:00,
2013-05-24 09:00:00,49.1,33.7,30.37,East,86,1.0,1.0,55,0.00,,---,0.00,VWS V14.00,2013-05-24 14:00:00,
2013-05-24 09:05:00,49.5,33.6,30.37,ENE,78,0.0,1.0,54,0.00,,---,0.00,VWS V14.00,2013-05-24 14:05:00,
2013-05-24 09:10:00,49.8,33.8,30.37,ESE,107,0.0,2.0,54,0.00,,---,0.00,VWS V14.00,2013-05-24 14:10:00,
2013-05-24 09:15:00,49.9,33.0,30.37,WNW,298,1.0,6.0,52,0.00,,---,0.00,VWS V14.00,2013-05-24 14:15:00,
2013-05-24 09:20:00,50.0,33.1,30.38,North,355,2.0,8.0,52,0.00,,---,0.00,VWS V14.00,2013-05-24 14:20:00,
2013-05-24 09:25:00,50.0,32.6,30.38,ENE,63,0.0,2.0,51,0.00,,---,0.00,VWS V14.00,2013-05-24 14:25:00,
2013-05-24 09:30:00,50.7,32.8,30.38,NNW,348,1.0,4.0,50,0.00,,---,0.00,VWS V14.00,2013-05-24 14:30:00,
2013-05-24 09:35:00,50.8,33.8,30.38,East,97,0.0,1.0,52,0.00,,---,0.00,VWS V14.00,2013-05-24 14:35:00,
2013-05-24 09:40:00,51.4,33.9,30.38,NNE,17,3.0,3.0,51,0.00,,---,0.00,VWS V14.00,2013-05-24 14:40:00,
2013-05-24 09:45:00,51.8,32.8,30.38,ENE,69,0.0,3.0,48,0.00,,---,0.00,VWS V14.00,2013-05-24 14:45:00,
2013-05-24 09:50:00,52.0,33.5,30.38,NNE,16,2.0,7.0,49,0.00,,---,0.00,VWS V14.00,2013-05-24 14:50:00,
2013-05-24 09:55:00,52.0,33.5,30.38,ENE,71,0.0,2.0,49,0.00,,---,0.00,VWS V14.00,2013-05-24 14:55:00,
2013-05-24 10:00:00,52.2,33.6,30.38,NE,40,3.0,5.0,49,0.00,,---,0.00,VWS V14.00,2013-05-24 15:00:00,
2013-05-24 10:05:00,52.3,32.7,30.37,North,360,1.0,8.0,47,0.00,,---,0.00,VWS V14.00,2013-05-24 15:05:00,
2013-05-24 10:10:00,52.5,33.9,30.37,North,355,1.0,2.0,49,0.00,,---,0.00,VWS V14.00,2013-05-24 15:10:00,
2013-05-24 10:15:00,52.8,33.2,30.37,NE,49,1.0,3.0,47,0.00,,---,0.00,VWS V14.00,2013-05-24 15:15:00,
2013-05-24 10:20:00,53.0,33.8,30.37,North,5,2.0,3.0,48,0.00,,---,0.00,VWS V14.00,2013-05-24 15:20:00,
2013-05-24 10:25:00,53.0,32.8,30.37,West,259,0.0,3.0,46,0.00,,---,0.00,VWS V14.00,2013-05-24 15:25:00,
2013-05-24 10:30:00,53.2,33.0,30.37,SE,130,0.0,2.0,46,0.00,,---,0.00,VWS V14.00,2013-05-24 15:30:00,
2013-05-24 10:35:00,53.0,32.8,30.37,East,85,1.0,2.0,46,0.00,,---,0.00,VWS V14.00,2013-05-24 15:35:00,
2013-05-24 10:40:00,53.1,34.5,30.37,NE,44,0.0,3.0,49,0.00,,---,0.00,VWS V14.00,2013-05-24 15:40:00,
2013-05-24 10:45:00,53.6,33.3,30.37,ESE,109,1.0,4.0,46,0.00,,---,0.00,VWS V14.00,2013-05-24 15:45:00,
2013-05-24 10:50:00,53.2,34.5,30.36,ENE,71,2.0,3.0,49,0.00,,---,0.00,VWS V14.00,2013-05-24 15:50:00,
2013-05-24 10:55:00,53.5,34.8,30.36,SE,134,1.0,1.0,49,0.00,,---,0.00,VWS V14.00,2013-05-24 15:55:00,
2013-05-24 11:00:00,54.0,34.2,30.36,ESE,107,0.0,2.0,47,0.00,,---,0.00,VWS V14.00,2013-05-24 16:00:00,
2013-05-24 11:05:00,54.2,33.9,30.36,ENE,70,1.0,3.0,46,0.00,,---,0.00,VWS V14.00,2013-05-24 16:05:00,
2013-05-24 11:10:00,54.0,35.3,30.36,North,355,0.0,3.0,49,0.00,,---,0.00,VWS V14.00,2013-05-24 16:10:00,
2013-05-24 11:15:00,54.6,34.8,30.36,ESE,114,0.0,2.0,47,0.00,,---,0.00,VWS V14.00,2013-05-24 16:15:00,
2013-05-24 11:20:00,54.8,33.9,30.36,ESE,106,0.0,1.0,45,0.00,,---,0.00,VWS V14.00,2013-05-24 16:20:00,
2013-05-24 11:25:00,54.8,33.3,30.36,South,183,1.0,6.0,44,0.00,,---,0.00,VWS V14.00,2013-05-24 16:25:00,
2013-05-24 11:30:00,54.3,34.0,30.36,SSW,207,4.0,4.0,46,0.00,,---,0.00,VWS V14.00,2013-05-24 16:30:00,
2013-05-24 11:35:00,54.3,36.1,30.36,NNW,333,3.0,5.0,50,0.00,,---,0.00,VWS V14.00,2013-05-24 16:35:00,
2013-05-24 11:40:00,54.7,34.3,30.36,WNW,294,0.0,3.0,46,0.00,,---,0.00,VWS V14.00,2013-05-24 16:40:00,
2013-05-24 11:45:00,55.2,36.4,30.36,NNW,348,2.0,2.0,49,0.00,,---,0.00,VWS V14.00,2013-05-24 16:45:00,
2013-05-24 11:50:00,56.1,35.6,30.35,ESE,105,1.0,2.0,46,0.00,,---,0.00,VWS V14.00,2013-05-24 16:50:00,
2013-05-24 11:55:00,56.3,35.8,30.35,ENE,60,0.0,3.0,46,0.00,,---,0.00,VWS V14.00,2013-05-24 16:55:00,
2013-05-24 12:00:00,56.7,36.7,30.35,ESE,108,0.0,1.0,47,0.00,,---,0.00,VWS V14.00,2013-05-24 17:00:00,
2013-05-24 12:05:00,57.2,36.1,30.35,East,82,0.0,2.0,45,0.00,,---,0.00,VWS V14.00,2013-05-24 17:05:00,
2013-05-24 12:10:00,57.5,36.9,30.35,West,270,0.0,2.0,46,0.00,,---,0.00,VWS V14.00,2013-05-24 17:10:00,
2013-05-24 12:15:00,58.2,36.4,30.35,NNW,342,1.0,2.0,44,0.00,,---,0.00,VWS V14.00,2013-05-24 17:15:00,
2013-05-24 12:20:00,58.0,35.1,30.35,NW,309,0.0,5.0,42,0.00,,---,0.00,VWS V14.00,2013-05-24 17:20:00,
2013-05-24 12:25:00,57.8,35.5,30.35,ENE,69,0.0,2.0,43,0.00,,---,0.00,VWS V14.00,2013-05-24 17:25:00,
2013-05-24 12:30:00,57.8,35.5,30.35,NE,45,0.0,3.0,43,0.00,,---,0.00,VWS V14.00,2013-05-24 17:30:00,
2013-05-24 12:35:00,58.4,39.8,30.34,East,83,0.0,2.0,50,0.00,,---,0.00,VWS V14.00,2013-05-24 17:35:00,
2013-05-24 12:40:00,58.6,37.9,30.34,ENE,71,3.0,6.0,46,0.00,,---,0.00,VWS V14.00,2013-05-24 17:40:00,
2013-05-24 12:45:00,56.7,37.2,30.34,ENE,57,1.0,5.0,48,0.00,,---,0.00,VWS V14.00,2013-05-24 17:45:00,
2013-05-24 12:50:00,55.3,36.5,30.34,SSE,161,7.0,7.0,49,0.00,,---,0.00,VWS V14.00,2013-05-24 17:50:00,
2013-05-24 12:54:00,54.5,37.2,30.34,SE,142,5.0,5.0,52,0.00,,---,0.00,VWS V14.00,2013-05-24 17:54:00,
2013-05-24 12:59:00,54.7,37.9,30.34,ESE,121,1.0,4.0,53,0.00,,---,0.00,VWS V14.00,2013-05-24 17:59:00,
2013-05-24 13:04:00,55.0,38.2,30.34,SSE,157,0.0,4.0,53,0.00,,---,0.00,VWS V14.00,2013-05-24 18:04:00,
2013-05-24 13:09:00,54.9,38.1,30.34,SE,143,5.0,6.0,53,0.00,,---,0.00,VWS V14.00,2013-05-24 18:09:00,
2013-05-24 13:14:00,54.8,38.5,30.34,NNE,22,0.0,5.0,54,0.00,,---,0.00,VWS V14.00,2013-05-24 18:14:00,
2013-05-24 13:19:00,55.0,38.2,30.34,SE,145,5.0,7.0,53,0.00,,---,0.00,VWS V14.00,2013-05-24 18:19:00,
2013-05-24 13:24:00,54.9,39.0,30.34,East,92,5.0,7.0,55,0.00,,---,0.00,VWS V14.00,2013-05-24 18:24:00,
2013-05-24 13:29:00,55.1,38.8,30.34,SE,132,3.0,7.0,54,0.00,,---,0.00,VWS V14.00,2013-05-24 18:29:00,
2013-05-24 13:34:00,55.2,38.9,30.34,SSE,147,5.0,7.0,54,0.00,,---,0.00,VWS V14.00,2013-05-24 18:34:00,
2013-05-24 13:39:00,55.0,39.6,30.34,East,86,2.0,5.0,56,0.00,,---,0.00,VWS V14.00,2013-05-24 18:39:00,
2013-05-24 13:44:00,55.5,39.1,30.34,East,90,2.0,5.0,54,0.00,,---,0.00,VWS V14.00,2013-05-24 18:44:00,
2013-05-24 13:49:00,55.8,39.4,30.33,NNE,20,0.0,1.0,54,0.00,,---,0.00,VWS V14.00,2013-05-24 18:49:00,
2013-05-24 13:54:00,56.4,38.0,30.33,East,92,2.0,4.0,50,0.00,,---,0.00,VWS V14.00,2013-05-24 18:54:00,
2013-05-24 13:59:00,55.1,38.3,30.33,East,96,3.0,8.0,53,0.00,,---,0.00,VWS V14.00,2013-05-24 18:59:00,
2013-05-24 14:04:00,55.0,38.2,30.33,NE,38,1.0,9.0,53,0.00,,---,0.00,VWS V14.00,2013-05-24 19:04:00,
2013-05-24 14:09:00,55.2,38.4,30.33,East,98,0.0,3.0,53,0.00,,---,0.00,VWS V14.00,2013-05-24 19:09:00,
2013-05-24 14:14:00,55.8,39.4,30.33,ENE,69,1.0,5.0,54,0.00,,---,0.00,VWS V14.00,2013-05-24 19:14:00,
2013-05-24 14:19:00,55.5,38.7,30.33,ENE,61,0.0,2.0,53,0.00,,---,0.00,VWS V14.00,2013-05-24 19:19:00,
2013-05-24 14:24:00,55.7,38.4,30.33,ENE,65,0.0,2.0,52,0.00,,---,0.00,VWS V14.00,2013-05-24 19:24:00,
2013-05-24 14:29:00,56.0,38.2,30.33,ENE,69,1.0,3.0,51,0.00,,---,0.00,VWS V14.00,2013-05-24 19:29:00,
2013-05-24 14:34:00,55.8,38.0,30.33,ESE,123,1.0,4.0,51,0.00,,---,0.00,VWS V14.00,2013-05-24 19:34:00,
2013-05-24 14:39:00,55.3,38.0,30.33,East,96,1.0,3.0,52,0.00,,---,0.00,VWS V14.00,2013-05-24 19:39:00,
2013-05-24 14:44:00,54.9,37.6,30.33,SSE,155,3.0,8.0,52,0.00,,---,0.00,VWS V14.00,2013-05-24 19:44:00,
2013-05-24 14:49:00,54.4,37.2,30.32,SE,133,5.0,10.0,52,0.00,,---,0.00,VWS V14.00,2013-05-24 19:49:00,
2013-05-24 14:54:00,54.1,36.9,30.32,SE,125,1.0,7.0,52,0.00,,---,0.00,VWS V14.00,2013-05-24 19:54:00,
2013-05-24 14:59:00,54.8,38.0,30.32,NNW,332,1.0,6.0,53,0.00,,---,0.00,VWS V14.00,2013-05-24 19:59:00,
2013-05-24 15:04:00,55.3,38.0,30.32,ENE,68,1.0,6.0,52,0.00,,---,0.00,VWS V14.00,2013-05-24 20:04:00,
2013-05-24 15:09:00,54.5,37.7,30.32,East,88,1.0,8.0,53,0.00,,---,0.00,VWS V14.00,2013-05-24 20:09:00,
2013-05-24 15:14:00,54.0,37.3,30.32,SSE,161,2.0,5.0,53,0.00,,---,0.00,VWS V14.00,2013-05-24 20:14:00,
2013-05-24 15:19:00,54.2,38.4,30.31,SE,128,3.0,10.0,55,0.00,,---,0.00,VWS V14.00,2013-05-24 20:19:00,
2013-05-24 15:24:00,53.7,36.5,30.31,East,80,2.0,6.0,52,0.00,,---,0.00,VWS V14.00,2013-05-24 20:24:00,
2013-05-24 15:29:00,53.6,36.9,30.31,East,96,2.0,8.0,53,0.00,,---,0.00,VWS V14.00,2013-05-24 20:29:00,
2013-05-24 15:34:00,53.3,36.1,30.31,SE,137,2.0,7.0,52,0.00,,---,0.00,VWS V14.00,2013-05-24 20:34:00,
2013-05-24 15:39:00,52.9,36.2,30.31,SSE,148,2.0,9.0,53,0.00,,---,0.00,VWS V14.00,2013-05-24 20:39:00,
2013-05-24 15:44:00,52.4,37.2,30.31,East,90,3.0,6.0,56,0.00,,---,0.00,VWS V14.00,2013-05-24 20:44:00,
2013-05-24 15:49:00,52.6,36.5,30.31,East,91,1.0,11.0,54,0.00,,---,0.00,VWS V14.00,2013-05-24 20:49:00,
2013-05-24 15:54:00,52.8,37.5,30.31,ESE,114,2.0,2.0,56,0.00,,---,0.00,VWS V14.00,2013-05-24 20:54:00,
2013-05-24 15:59:00,53.3,37.1,30.31,ENE,57,5.0,5.0,54,0.00,,---,0.00,VWS V14.00,2013-05-24 20:59:00,
2013-05-24 16:04:00,53.0,36.3,30.30,East,93,0.0,7.0,53,0.00,,---,0.00,VWS V14.00,2013-05-24 21:04:00,
2013-05-24 16:09:00,53.1,36.9,30.30,NE,51,0.0,1.0,54,0.00,,---,0.00,VWS V14.00,2013-05-24 21:09:00,
2013-05-24 16:14:00,52.9,35.8,30.30,ENE,74,1.0,5.0,52,0.00,,---,0.00,VWS V14.00,2013-05-24 21:14:00,
2013-05-24 16:19:00,52.7,36.1,30.29,ENE,65,3.0,5.0,53,0.00,,---,0.00,VWS V14.00,2013-05-24 21:19:00,
2013-05-24 16:24:00,52.4,35.8,30.29,ENE,63,3.0,6.0,53,0.00,,---,0.00,VWS V14.00,2013-05-24 21:24:00,
2013-05-24 16:29:00,52.7,36.1,30.29,ESE,119,2.0,3.0,53,0.00,,---,0.00,VWS V14.00,2013-05-24 21:29:00,
2013-05-24 16:34:00,52.8,36.2,30.29,ENE,69,0.0,2.0,53,0.00,,---,0.00,VWS V14.00,2013-05-24 21:34:00,
2013-05-24 16:39:00,52.6,35.5,30.29,East,86,1.0,3.0,52,0.00,,---,0.00,VWS V14.00,2013-05-24 21:39:00,
2013-05-24 16:44:00,52.7,35.6,30.29,ESE,118,1.0,5.0,52,0.00,,---,0.00,VWS V14.00,2013-05-24 21:44:00,
2013-05-24 16:49:00,52.7,36.1,30.28,NE,40,1.0,2.0,53,0.00,,---,0.00,VWS V14.00,2013-05-24 21:49:00,
2013-05-24 16:54:00,53.0,36.3,30.28,NNE,32,4.0,4.0,53,0.00,,---,0.00,VWS V14.00,2013-05-24 21:54:00,
2013-05-24 16:59:00,53.3,36.6,30.28,ENE,57,0.0,3.0,53,0.00,,---,0.00,VWS V14.00,2013-05-24 21:59:00,
2013-05-24 17:04:00,53.2,36.0,30.27,East,96,1.0,2.0,52,0.00,,---,0.00,VWS V14.00,2013-05-24 22:04:00,
2013-05-24 17:09:00,53.2,36.0,30.27,ENE,71,1.0,5.0,52,0.00,,---,0.00,VWS V14.00,2013-05-24 22:09:00,
2013-05-24 17:14:00,52.8,35.2,30.27,East,96,1.0,5.0,51,0.00,,---,0.00,VWS V14.00,2013-05-24 22:14:00,
2013-05-24 17:19:00,52.0,35.4,30.28,East,80,0.0,3.0,53,0.00,,---,0.00,VWS V14.00,2013-05-24 22:19:00,
2013-05-24 17:24:00,51.7,35.1,30.28,ENE,73,1.0,4.0,53,0.00,,---,0.00,VWS V14.00,2013-05-24 22:24:00,
2013-05-24 17:29:00,51.3,35.2,30.28,ENE,59,1.0,4.0,54,0.00,,---,0.00,VWS V14.00,2013-05-24 22:29:00,
2013-05-24 17:34:00,51.7,35.6,30.28,East,90,1.0,3.0,54,0.00,,---,0.00,VWS V14.00,2013-05-24 22:34:00,
2013-05-24 17:39:00,51.9,35.8,30.28,East,83,0.0,3.0,54,0.00,,---,0.00,VWS V14.00,2013-05-24 22:39:00,
2013-05-24 17:44:00,51.8,35.7,30.28,ESE,103,1.0,5.0,54,0.00,,---,0.00,VWS V14.00,2013-05-24 22:44:00,
2013-05-24 17:49:00,51.9,35.3,30.28,ESE,113,2.0,4.0,53,0.00,,---,0.00,VWS V14.00,2013-05-24 22:49:00,
2013-05-24 17:54:00,51.7,35.1,30.28,East,92,1.0,5.0,53,0.00,,---,0.00,VWS V14.00,2013-05-24 22:54:00,
2013-05-24 17:59:00,51.5,35.0,30.28,East,84,1.0,2.0,53,0.00,,---,0.00,VWS V14.00,2013-05-24 22:59:00,
2013-05-24 18:04:00,51.4,34.9,30.27,NE,49,0.0,3.0,53,0.00,,---,0.00,VWS V14.00,2013-05-24 23:04:00,
2013-05-24 18:09:00,51.6,35.5,30.27,SSE,147,0.0,1.0,54,0.00,,---,0.00,VWS V14.00,2013-05-24 23:09:00,
2013-05-24 18:14:00,51.6,35.0,30.27,East,93,0.0,1.0,53,0.00,,---,0.00,VWS V14.00,2013-05-24 23:14:00,
2013-05-24 18:19:00,51.9,35.8,30.26,SSE,152,1.0,1.0,54,0.00,,---,0.00,VWS V14.00,2013-05-24 23:19:00,
2013-05-24 18:24:00,51.7,35.1,30.26,SE,130,1.0,2.0,53,0.00,,---,0.00,VWS V14.00,2013-05-24 23:24:00,
2013-05-24 18:29:00,51.5,35.4,30.26,NNE,27,0.0,1.0,54,0.00,,---,0.00,VWS V14.00,2013-05-24 23:29:00,
2013-05-24 18:34:00,51.5,35.0,30.27,SE,127,1.0,3.0,53,0.00,,---,0.00,VWS V14.00,2013-05-24 23:34:00,
2013-05-24 18:39:00,51.3,34.8,30.27,ENE,76,0.0,1.0,53,0.00,,---,0.00,VWS V14.00,2013-05-24 23:39:00,
2013-05-24 18:44:00,50.9,34.4,30.27,ESE,109,1.0,2.0,53,0.00,,---,0.00,VWS V14.00,2013-05-24 23:44:00,
2013-05-24 18:49:00,50.7,34.2,30.27,ESE,109,0.0,2.0,53,0.00,,---,0.00,VWS V14.00,2013-05-24 23:49:00,
2013-05-24 18:54:00,50.5,34.5,30.27,ENE,59,1.0,1.0,54,0.00,,---,0.00,VWS V14.00,2013-05-24 23:54:00,
2013-05-24 18:59:00,50.5,34.5,30.27,NNE,22,2.0,3.0,54,0.00,,---,0.00,VWS V14.00,2013-05-24 23:59:00,
2013-05-24 19:04:00,50.4,34.4,30.27,ENE,65,0.0,2.0,54,0.00,,---,0.00,VWS V14.00,2013-05-25 00:04:00,
2013-05-24 19:09:00,50.4,33.9,30.27,ENE,59,0.0,1.0,53,0.00,,---,0.00,VWS V14.00,2013-05-25 00:09:00,
2013-05-24 19:14:00,50.2,34.2,30.27,NE,46,0.0,0.0,54,0.00,,---,0.00,VWS V14.00,2013-05-25 00:14:00,
2013-05-24 19:19:00,49.8,33.4,30.27,ENE,63,0.0,1.0,53,0.00,,---,0.00,VWS V14.00,2013-05-25 00:19:00,
2013-05-24 19:24:00,49.4,33.5,30.27,ENE,78,0.0,1.0,54,0.00,,---,0.00,VWS V14.00,2013-05-25 00:24:00,
2013-05-24 19:29:00,49.1,33.7,30.27,NNE,13,0.0,1.0,55,0.00,,---,0.00,VWS V14.00,2013-05-25 00:29:00,
2013-05-24 19:34:00,48.5,32.6,30.28,ENE,63,0.0,1.0,54,0.00,,---,0.00,VWS V14.00,2013-05-25 00:34:00,
2013-05-24 19:39:00,48.0,32.2,30.28,East,99,0.0,1.0,54,0.00,,---,0.00,VWS V14.00,2013-05-25 00:39:00,
2013-05-24 19:44:00,47.5,31.7,30.28,ENE,69,0.0,2.0,54,0.00,,---,0.00,VWS V14.00,2013-05-25 00:44:00,
2013-05-24 19:49:00,46.9,31.1,30.27,ENE,77,0.0,0.0,54,0.00,,---,0.00,VWS V14.00,2013-05-25 00:49:00,
2013-05-24 19:54:00,46.6,31.8,30.27,ENE,67,0.0,1.0,56,0.00,,---,0.00,VWS V14.00,2013-05-25 00:54:00,
2013-05-24 19:59:00,46.2,30.9,30.27,NE,34,0.0,1.0,55,0.00,,---,0.00,VWS V14.00,2013-05-25 00:59:00,
2013-05-24 20:04:00,45.8,30.1,30.28,NE,38,0.0,1.0,54,0.00,,---,0.00,VWS V14.00,2013-05-25 01:04:00,
2013-05-24 20:09:00,45.4,30.2,30.28,North,5,0.0,1.0,55,0.00,,---,0.00,VWS V14.00,2013-05-25 01:09:00,
2013-05-24 20:14:00,45.0,29.8,30.28,North,360,0.0,2.0,55,0.00,,---,0.00,VWS V14.00,2013-05-25 01:14:00,
2013-05-24 20:19:00,44.8,30.1,30.29,ENE,74,1.0,1.0,56,0.00,,---,0.00,VWS V14.00,2013-05-25 01:19:00,
2013-05-24 20:24:00,44.5,30.2,30.29,ENE,71,0.0,0.0,57,0.00,,---,0.00,VWS V14.00,2013-05-25 01:24:00,
2013-05-24 20:29:00,44.3,30.5,30.29,ENE,69,0.0,1.0,58,0.00,,---,0.00,VWS V14.00,2013-05-25 01:29:00,
2013-05-24 20:34:00,44.1,30.7,30.29,ENE,68,0.0,0.0,59,0.00,,---,0.00,VWS V14.00,2013-05-25 01:34:00,
2013-05-24 20:39:00,44.0,31.0,30.29,ENE,68,0.0,0.0,60,0.00,,---,0.00,VWS V14.00,2013-05-25 01:39:00,
2013-05-24 20:44:00,43.8,30.8,30.29,ENE,68,0.0,1.0,60,0.00,,---,0.00,VWS V14.00,2013-05-25 01:44:00,
2013-05-24 20:49:00,43.6,30.6,30.29,ENE,63,0.0,1.0,60,0.00,,---,0.00,VWS V14.00,2013-05-25 01:49:00,
2013-05-24 20:54:00,43.5,31.8,30.29,ENE,63,0.0,0.0,63,0.00,,---,0.00,VWS V14.00,2013-05-25 01:54:00,
2013-05-24 20:59:00,43.2,32.2,30.29,ENE,63,0.0,0.0,65,0.00,,---,0.00,VWS V14.00,2013-05-25 01:59:00,
2013-05-24 21:04:00,42.9,32.3,30.29,ENE,63,0.0,0.0,66,0.00,,---,0.00,VWS V14.00,2013-05-25 02:04:00,
2013-05-24 21:09:00,42.6,32.4,30.30,ENE,63,0.0,0.0,67,0.00,,---,0.00,VWS V14.00,2013-05-25 02:09:00,
2013-05-24 21:14:00,42.3,32.9,30.30,ENE,63,0.0,0.0,69,0.00,,---,0.00,VWS V14.00,2013-05-25 02:14:00,
2013-05-24 21:19:00,41.9,32.8,30.30,ENE,63,0.0,0.0,70,0.00,,---,0.00,VWS V14.00,2013-05-25 02:19:00,
2013-05-24 21:24:00,41.6,33.3,30.30,ENE,63,0.0,0.0,72,0.00,,---,0.00,VWS V14.00,2013-05-25 02:24:00,
2013-05-24 21:29:00,41.3,33.0,30.30,ENE,63,0.0,0.0,72,0.00,,---,0.00,VWS V14.00,2013-05-25 02:29:00,
2013-05-24 21:34:00,41.2,33.2,30.30,ENE,63,0.0,0.0,73,0.00,,---,0.00,VWS V14.00,2013-05-25 02:34:00,
2013-05-24 21:39:00,41.0,33.4,30.29,ENE,63,0.0,0.0,74,0.00,,---,0.00,VWS V14.00,2013-05-25 02:39:00,
2013-05-24 21:44:00,40.9,33.3,30.29,ENE,63,0.0,0.0,74,0.00,,---,0.00,VWS V14.00,2013-05-25 02:44:00,
2013-05-24 21:49:00,40.9,33.3,30.29,ENE,63,0.0,0.0,74,0.00,,---,0.00,VWS V14.00,2013-05-25 02:49:00,
2013-05-24 21:54:00,40.9,33.3,30.30,ENE,63,0.0,0.0,74,0.00,,---,0.00,VWS V14.00,2013-05-25 02:54:00,
2013-05-24 21:59:00,40.8,33.5,30.30,ENE,63,0.0,1.0,75,0.00,,---,0.00,VWS V14.00,2013-05-25 02:59:00,
2013-05-24 22:04:00,40.6,33.3,30.30,ENE,63,0.0,0.0,75,0.00,,---,0.00,VWS V14.00,2013-05-25 03:04:00,
2013-05-24 22:09:00,40.5,33.5,30.31,ENE,63,0.0,0.0,76,0.00,,---,0.00,VWS V14.00,2013-05-25 03:09:00,
2013-05-24 22:14:00,40.3,33.3,30.31,ENE,63,0.0,0.0,76,0.00,,---,0.00,VWS V14.00,2013-05-25 03:14:00,
2013-05-24 22:19:00,40.1,33.5,30.31,ENE,63,0.0,0.0,77,0.00,,---,0.00,VWS V14.00,2013-05-25 03:19:00,
2013-05-24 22:24:00,40.0,33.7,30.30,ENE,63,0.0,0.0,78,0.00,,---,0.00,VWS V14.00,2013-05-25 03:24:00,
2013-05-24 22:29:00,39.8,33.8,30.30,ENE,63,0.0,0.0,79,0.00,,---,0.00,VWS V14.00,2013-05-25 03:29:00,
2013-05-24 22:34:00,39.7,33.7,30.30,ENE,63,0.0,0.0,79,0.00,,---,0.00,VWS V14.00,2013-05-25 03:34:00,
2013-05-24 22:38:00,39.7,33.7,30.30,ENE,63,0.0,0.0,79,0.00,,---,0.00,VWS V14.00,2013-05-25 03:38:00,
2013-05-24 22:43:00,39.7,34.0,30.30,ENE,63,0.0,0.0,80,0.00,,---,0.00,VWS V14.00,2013-05-25 03:43:00,
2013-05-24 22:48:00,39.6,34.0,30.30,ENE,63,0.0,0.0,80,0.00,,---,0.00,VWS V14.00,2013-05-25 03:48:00,
2013-05-24 22:53:00,39.5,34.2,30.30,ENE,63,0.0,0.0,81,0.00,,---,0.00,VWS V14.00,2013-05-25 03:53:00,
2013-05-24 22:58:00,39.3,34.0,30.30,ENE,63,0.0,1.0,81,0.00,,---,0.00,VWS V14.00,2013-05-25 03:58:00,
2013-05-24 23:01:00,39.2,33.9,30.30,ENE,63,0.0,0.0,81,0.00,,---,0.00,VWS V14.00,2013-05-25 04:01:00,
2013-05-24 23:06:00,39.2,33.9,30.30,ENE,63,0.0,0.0,81,0.00,,---,0.00,VWS V14.00,2013-05-25 04:06:00,
2013-05-24 23:11:00,39.3,34.0,30.30,ENE,63,0.0,0.0,81,0.00,,---,0.00,VWS V14.00,2013-05-25 04:11:00,
2013-05-24 23:16:00,39.3,34.3,30.30,ENE,63,0.0,0.0,82,0.00,,---,0.00,VWS V14.00,2013-05-25 04:16:00,
2013-05-24 23:21:00,39.4,34.1,30.31,ENE,63,0.0,0.0,81,0.00,,---,0.00,VWS V14.00,2013-05-25 04:21:00,
2013-05-24 23:26:00,39.5,34.2,30.31,ENE,63,0.0,0.0,81,0.00,,---,0.00,VWS V14.00,2013-05-25 04:26:00,
2013-05-24 23:31:00,39.6,34.6,30.31,ENE,63,0.0,0.0,82,0.00,,---,0.00,VWS V14.00,2013-05-25 04:31:00,
2013-05-24 23:36:00,39.6,34.6,30.31,ENE,63,0.0,0.0,82,0.00,,---,0.00,VWS V14.00,2013-05-25 04:36:00,
2013-05-24 23:41:00,39.6,34.6,30.31,ENE,63,0.0,0.0,82,0.00,,---,0.00,VWS V14.00,2013-05-25 04:41:00,
2013-05-24 23:46:00,39.6,34.9,30.31,ENE,63,0.0,0.0,83,0.00,,---,0.00,VWS V14.00,2013-05-25 04:46:00,
2013-05-24 23:51:00,39.6,34.9,30.30,ENE,63,0.0,0.0,83,0.00,,---,0.00,VWS V14.00,2013-05-25 04:51:00,
2013-05-24 23:56:00,39.7,35.0,30.30,ENE,63,0.0,0.0,83,0.00,,---,0.00,VWS V14.00,2013-05-25 04:56:00,